• In Czech Republic
  • List of Countries
  • For 7 days
  • Water Temperature
  • Satellite Maps
  • Weather Map
  • Weather Widgets
  • user-avatar
    Login

    Hourly Weather Bridgwater

    Today, 22 November, Wednesday

    Time Temperature Precipitation Wind Pressure Humidity
    00:00 +12°C° 0 mm 8 mps 752 mmHg 88%
    01:00 +12°C° 0 mm 8 mps 751 mmHg 87%
    02:00 +12°C° 0 mm 8 mps 751 mmHg 86%
    03:00 +12°C° 0 mm 9 mps 750 mmHg 85%
    04:00 +12°C° 0 mm 9 mps 750 mmHg 85%
    05:00 +13°C° 0 mm 9 mps 749 mmHg 86%
    06:00 +13°C° 0 mm 10 mps 748 mmHg 86%
    07:00 +13°C° 0.1 mm 10 mps 748 mmHg 85%
    08:00 +13°C° 0.1 mm 10 mps 747 mmHg 85%
    09:00 +13°C° 0.1 mm 11 mps 747 mmHg 85%
    10:00 +13°C° 0.1 mm 11 mps 746 mmHg 84%
    11:00 +13°C° 0.1 mm 11 mps 746 mmHg 84%
    12:00 +13°C° 0.1 mm 11 mps 745 mmHg 83%
    13:00 +13°C° 0.2 mm 12 mps 744 mmHg 81%
    14:00 +13°C° 0.2 mm 12 mps 743 mmHg 78%
    15:00 +13°C° 0.2 mm 13 mps 742 mmHg 75%
    16:00 +13°C° 0.6 mm 13 mps 741 mmHg 79%
    17:00 +13°C° 0.6 mm 13 mps 740 mmHg 82%
    18:00 +13°C° 0.6 mm 14 mps 740 mmHg 85%
    19:00 +13°C° 0.5 mm 13 mps 739 mmHg 86%
    20:00 +13°C° 0.5 mm 13 mps 739 mmHg 86%
    21:00 +13°C° 0.5 mm 12 mps 738 mmHg 87%
    22:00 +13°C° 0.8 mm 12 mps 738 mmHg 87%
    23:00 +13°C° 0.8 mm 11 mps 738 mmHg 87%

    Tomorrow, 23 November, Thursday

    Time Temperature Precipitation Wind Pressure Humidity
    00:00 +13°C° 0.8 mm 10 mps 737 mmHg 88%
    01:00 +12°C° 0.5 mm 10 mps 737 mmHg 88%
    02:00 +12°C° 0.5 mm 9 mps 738 mmHg 88%
    03:00 +12°C° 0.5 mm 9 mps 738 mmHg 88%
    04:00 +11°C° 0.2 mm 9 mps 740 mmHg 86%
    05:00 +10°C° 0.2 mm 9 mps 741 mmHg 84%
    06:00 +8°C° 0.2 mm 9 mps 742 mmHg 82%
    07:00 +7°C° 0 mm 9 mps 744 mmHg 79%
    08:00 +7°C° 0 mm 8 mps 745 mmHg 77%
    09:00 +6°C° 0 mm 8 mps 747 mmHg 74%
    10:00 +7°C° 0 mm 8 mps 748 mmHg 70%
    11:00 +9°C° 0 mm 8 mps 749 mmHg 66%
    12:00 +10°C° 0 mm 9 mps 750 mmHg 62%
    13:00 +9°C° 0 mm 8 mps 751 mmHg 64%
    14:00 +9°C° 0 mm 7 mps 751 mmHg 65%
    15:00 +9°C° 0 mm 6 mps 752 mmHg 67%
    16:00 +8°C° 0.4 mm 5 mps 752 mmHg 72%
    17:00 +8°C° 0.4 mm 4 mps 752 mmHg 77%
    18:00 +8°C° 0.4 mm 3 mps 752 mmHg 82%
    19:00 +8°C° 1.7 mm 3 mps 751 mmHg 85%
    20:00 +7°C° 1.7 mm 3 mps 751 mmHg 88%
    21:00 +6°C° 1.7 mm 4 mps 751 mmHg 91%
    22:00 +5°C° 0.5 mm 4 mps 751 mmHg 90%
    23:00 +5°C° 0.5 mm 4 mps 751 mmHg 88%

    Day after tomorrow, 24 November, Friday

    Time Temperature Precipitation Wind Pressure Humidity
    00:00 +5°C° 0.5 mm 4 mps 751 mmHg 86%
    01:00 +5°C° 0 mm 3 mps 752 mmHg 87%
    02:00 +5°C° 0 mm 2 mps 752 mmHg 87%
    03:00 +5°C° 0 mm 1 mps 753 mmHg 88%
    04:00 +5°C° 0 mm 1 mps 753 mmHg 88%
    05:00 +5°C° 0 mm 1 mps 754 mmHg 88%
    06:00 +5°C° 0 mm 1 mps 754 mmHg 88%
    07:00 +5°C° 0 mm 1 mps 755 mmHg 88%
    08:00 +4°C° 0 mm 2 mps 755 mmHg 88%
    09:00 +4°C° 0 mm 3 mps 756 mmHg 88%
    10:00 +5°C° 0.2 mm 3 mps 756 mmHg 84%
    11:00 +6°C° 0.2 mm 4 mps 756 mmHg 81%
    12:00 +8°C° 0.2 mm 4 mps 756 mmHg 78%
    13:00 +7°C° 0.3 mm 4 mps 756 mmHg 79%
    14:00 +7°C° 0.3 mm 4 mps 756 mmHg 81%
    15:00 +8°C° 0.3 mm 3 mps 756 mmHg 82%
    16:00 +7°C° 0.2 mm 3 mps 756 mmHg 84%
    17:00 +7°C° 0.2 mm 3 mps 756 mmHg 85%
    18:00 +5°C° 0.2 mm 3 mps 756 mmHg 87%
    19:00 +4°C° 0 mm 4 mps 756 mmHg 85%
    20:00 +3°C° 0 mm 5 mps 756 mmHg 84%
    21:00 +3°C° 0 mm 5 mps 757 mmHg 82%
    22:00 +3°C° 0 mm 5 mps 757 mmHg 81%
    23:00 +2°C° 0 mm 5 mps 757 mmHg 79%

    25 November, Saturday

    Time Temperature Precipitation Wind Pressure Humidity
    00:00 +2°C° 0 mm 5 mps 757 mmHg 78%
    01:00 +2°C° 0 mm 5 mps 757 mmHg 77%
    02:00 +2°C° 0 mm 5 mps 758 mmHg 76%
    03:00 +1°C° 0 mm 5 mps 758 mmHg 75%
    04:00 +1°C° 0 mm 5 mps 758 mmHg 75%
    05:00 +1°C° 0 mm 5 mps 759 mmHg 75%
    06:00 +1°C° 0 mm 5 mps 759 mmHg 75%
    07:00 +1°C° 0 mm 5 mps 760 mmHg 75%
    08:00 +1°C° 0 mm 6 mps 760 mmHg 74%
    09:00 +2°C° 0 mm 6 mps 761 mmHg 74%
    10:00 +3°C° 0.1 mm 6 mps 761 mmHg 70%
    11:00 +4°C° 0.1 mm 7 mps 762 mmHg 66%
    12:00 +5°C° 0.1 mm 8 mps 762 mmHg 62%
    13:00 +4°C° 0.1 mm 8 mps 762 mmHg 63%
    14:00 +4°C° 0.1 mm 7 mps 762 mmHg 65%
    15:00 +4°C° 0.1 mm 7 mps 763 mmHg 66%
    16:00 +3°C° 0 mm 6 mps 763 mmHg 68%
    17:00 +2°C° 0 mm 6 mps 763 mmHg 69%
    18:00 +2°C° 0 mm 6 mps 764 mmHg 71%
    19:00 +1°C° 0 mm 6 mps 764 mmHg 72%
    20:00 +1°C° 0 mm 6 mps 764 mmHg 72%
    21:00 +1°C° 0 mm 6 mps 765 mmHg 73%
    22:00 +1°C° 0 mm 6 mps 765 mmHg 74%
    23:00 +1°C° 0 mm 6 mps 765 mmHg 74%

    26 November, Sunday

    Time Temperature Precipitation Wind Pressure Humidity
    00:00 +1°C° 0 mm 6 mps 765 mmHg 75%
    01:00 +1°C° 0 mm 6 mps 765 mmHg 76%
    02:00 +2°C° 0 mm 6 mps 765 mmHg 78%
    03:00 +2°C° 0 mm 6 mps 765 mmHg 80%
    04:00 +2°C° 0 mm 6 mps 765 mmHg 80%
    05:00 +2°C° 0 mm 6 mps 765 mmHg 81%
    06:00 +2°C° 0 mm 6 mps 766 mmHg 81%
    07:00 +2°C° 0 mm 6 mps 766 mmHg 80%
    08:00 +2°C° 0 mm 6 mps 766 mmHg 78%
    09:00 +3°C° 0 mm 6 mps 767 mmHg 76%
    10:00 +4°C° 0 mm 7 mps 767 mmHg 73%
    11:00 +5°C° 0 mm 7 mps 767 mmHg 70%
    12:00 +6°C° 0 mm 8 mps 767 mmHg 67%
    13:00 +5°C° 0 mm 7 mps 767 mmHg 70%
    14:00 +5°C° 0 mm 6 mps 767 mmHg 72%
    15:00 +5°C° 0 mm 6 mps 767 mmHg 75%
    16:00 +5°C° 0 mm 5 mps 767 mmHg 77%
    17:00 +3°C° 0 mm 5 mps 768 mmHg 79%
    18:00 +3°C° 0 mm 5 mps 768 mmHg 82%
    19:00 +2°C° 0 mm 5 mps 768 mmHg 81%
    20:00 +3°C° 0 mm 4 mps 768 mmHg 81%
    21:00 +3°C° 0 mm 4 mps 768 mmHg 81%
    22:00 +3°C° 0 mm 4 mps 768 mmHg 81%
    23:00 +3°C° 0 mm 4 mps 768 mmHg 82%

    27 November, Monday

    Time Temperature Precipitation Wind Pressure Humidity
    00:00 +3°C° 0 mm 4 mps 768 mmHg 82%
    01:00 +4°C° 0 mm 4 mps 767 mmHg 82%
    02:00 +4°C° 0 mm 4 mps 767 mmHg 82%
    03:00 +5°C° 0 mm 5 mps 766 mmHg 81%
    04:00 +5°C° 0 mm 5 mps 765 mmHg 81%
    05:00 +5°C° 0 mm 6 mps 764 mmHg 80%
    06:00 +5°C° 0 mm 6 mps 763 mmHg 80%
    07:00 +5°C° 0 mm 7 mps 763 mmHg 79%
    08:00 +5°C° 0 mm 7 mps 762 mmHg 79%
    09:00 +6°C° 0 mm 8 mps 761 mmHg 78%
    10:00 +6°C° 0.6 mm 8 mps 760 mmHg 79%
    11:00 +6°C° 0.6 mm 9 mps 759 mmHg 79%
    12:00 +7°C° 0.6 mm 10 mps 758 mmHg 80%
    13:00 +6°C° 1.6 mm 10 mps 756 mmHg 83%
    14:00 +6°C° 1.6 mm 10 mps 755 mmHg 86%
    15:00 +6°C° 1.6 mm 10 mps 753 mmHg 89%
    16:00 +5°C° 1.7 mm 8 mps 752 mmHg 90%
    17:00 +5°C° 1.7 mm 7 mps 752 mmHg 90%
    18:00 +6°C° 1.7 mm 5 mps 751 mmHg 91%
    19:00 +4°C° 0.9 mm 6 mps 751 mmHg 89%
    20:00 +4°C° 0.9 mm 7 mps 751 mmHg 87%
    21:00 +4°C° 0.9 mm 7 mps 751 mmHg 85%
    22:00 +4°C° 0.8 mm 7 mps 751 mmHg 85%
    23:00 +3°C° 0.8 mm 7 mps 751 mmHg 85%
    Show more